Weather History for Zanesville, OH

Change the Weather History Date:

Thursday, November 10, 2011

  Actual Average Record
Temperature  
Mean Temperature 41 °F 45 °F  
Max Temperature 49 °F 56 °F 73 °F (1998)
Min Temperature 32 °F 35 °F 17 °F (1957)
Degree Days  
Heating Degree Days 24 20  
Month to date heating degree days 176 182  
Since 1 July heating degree days 654 669  
Cooling Degree Days 0 0  
Month to date cooling degree days 0 0  
Year to date cooling degree days 955 768  
Moisture  
Dew Point 30 °F    
Average Humidity 61    
Maximum Humidity 79    
Minimum Humidity 42    
Precipitation  
Precipitation 0.02 in 0.09 in 1.71 in (1985)
Month to date precipitation 0.13 0.96  
Year to date precipitation 42.71 33.10  
Sea Level Pressure  
Sea Level Pressure 29.99 in    
Wind  
Wind Speed 8 mph (WSW)    
Max Wind Speed 21 mph    
Max Gust Speed 29 mph    
Visibility 10 miles    
Events Rain    
T = Trace of Precipitation, MM = Missing Value Source: NWS Daily Summary

Daily Weather History Graph

Daily Weather History Graph

Search for Another Location

Airport:

Trip Planner

Search our weather history database for the weather conditions in past years. The results will help you decide how hot, cold, wet, or windy it might be!

Date:

Astronomy

Nov. 10, 2011 Rise Set
Actual Time 7:06 AM EST 5:15 PM EST
Civil Twilight 6:37 AM EST 5:44 PM EST
Nautical Twilight 6:05 AM EST 6:16 PM EST
Astronomical Twilight 5:33 AM EST 6:48 PM EST
Moon 5:02 PM EST (11/10) 6:57 AM EST (11/10)
Length of Visible Light 11h 06m
Length of Day
10h 09m
Full, 100% of the Moon is Illuminated
Nov 10
Full
Nov 10
Full
Nov 18
Last Quarter
Nov 25
New
Dec 2
First Quarter

Hourly Weather History & Observations

Time (EST) Temp. Windchill Dew Point Humidity Pressure Visibility Wind Dir Wind Speed Gust Speed Precip Events Conditions
12:53 AM 43.0 °F 37.2 °F 33.1 °F 68% 30.01 in 10.0 mi West 10.4 mph 19.6 mph N/A   Overcast
1:53 AM 42.1 °F 36.1 °F 30.9 °F 65% 30.03 in 10.0 mi West 10.4 mph - N/A   Overcast
2:53 AM 41.0 °F 35.2 °F 30.9 °F 67% 30.03 in 10.0 mi West 9.2 mph - N/A   Overcast
3:53 AM 41.0 °F 37.1 °F 30.0 °F 65% 30.03 in 10.0 mi West 5.8 mph - N/A   Overcast
4:53 AM 39.9 °F 35.1 °F 32.0 °F 73% 30.04 in 10.0 mi West 6.9 mph - N/A   Overcast
5:53 AM 39.2 °F 34.2 °F 32.0 °F 75% 30.04 in 10.0 mi WSW 6.9 mph - N/A   Overcast
6:53 AM 39.0 °F 35.7 °F 32.0 °F 76% 30.04 in 10.0 mi WSW 4.6 mph - N/A   Overcast
7:53 AM 39.2 °F 35.9 °F 33.8 °F 81% 30.05 in 10.0 mi SW 4.6 mph - N/A   Overcast
8:53 AM 41.0 °F 35.2 °F 32.0 °F 70% 30.06 in 10.0 mi SW 9.2 mph - N/A   Overcast
9:40 AM 41.0 °F 35.8 °F 30.2 °F 65% 30.04 in 10.0 mi SW 8.1 mph - N/A   Scattered Clouds
9:53 AM 42.1 °F 39.2 °F 32.0 °F 67% 30.05 in 10.0 mi SW 4.6 mph - N/A   Partly Cloudy
10:53 AM 44.1 °F 39.5 °F 30.9 °F 60% 30.03 in 10.0 mi SSW 8.1 mph - N/A   Scattered Clouds
11:53 AM 46.9 °F - 30.0 °F 52% 29.99 in 10.0 mi SW 9.2 mph - N/A   Scattered Clouds
12:53 PM 46.9 °F - 26.1 °F 44% 29.96 in 10.0 mi SW 13.8 mph 21.9 mph N/A   Mostly Cloudy
1:53 PM 46.9 °F - 27.0 °F 46% 29.94 in 10.0 mi WSW 9.2 mph 18.4 mph N/A   Overcast
2:53 PM 48.0 °F - 27.0 °F 44% 29.92 in 10.0 mi WSW 12.7 mph 18.4 mph N/A   Mostly Cloudy
3:53 PM 43.0 °F 38.8 °F 30.9 °F 62% 29.93 in 10.0 mi West 6.9 mph - 0.00 in   Mostly Cloudy
4:25 PM 41.0 °F 35.8 °F 32.0 °F 70% 29.93 in 9.0 mi SW 8.1 mph - 0.00 in Rain Light Rain
4:53 PM 39.0 °F 30.6 °F 33.1 °F 79% 29.95 in 6.0 mi West 15.0 mph 23.0 mph 0.02 in Rain Light Rain
5:12 PM 39.2 °F 34.2 °F 33.8 °F 81% 29.93 in 10.0 mi SSW 6.9 mph - 0.00 in Rain Light Rain
5:53 PM 37.9 °F 35.5 °F 33.1 °F 83% 29.94 in 10.0 mi SW 3.5 mph - 0.00 in   Mostly Cloudy
6:53 PM 39.0 °F 34.0 °F 25.0 °F 57% 29.95 in 10.0 mi West 6.9 mph - N/A   Partly Cloudy
7:53 PM 37.9 °F 32.7 °F 24.1 °F 57% 29.96 in 10.0 mi West 6.9 mph - N/A   Clear
8:53 PM 36.0 °F 30.3 °F 24.1 °F 62% 29.96 in 10.0 mi West 6.9 mph - N/A   Clear
9:53 PM 35.1 °F 27.4 °F 24.1 °F 64% 29.97 in 10.0 mi West 10.4 mph 17.3 mph N/A   Clear
10:53 PM 34.0 °F 26.6 °F 25.0 °F 70% 29.98 in 10.0 mi West 9.2 mph - N/A   Clear
11:53 PM 33.1 °F 26.9 °F 25.0 °F 72% 29.97 in 10.0 mi SW 6.9 mph - N/A   Clear